Time,TemperatureF,DewpointF,PressureIn,WindDirection,WindDirectionDegrees,WindSpeedMPH,WindSpeedGustMPH,Humidity,HourlyPrecipIn,Conditions,Clouds,dailyrainin,SoftwareType,DateUTC
2013-05-01 00:00:00,50.9,46.9,30.25,East,82,1.0,7.0,86,0.00,,---,0.04,VWS V14.01,2013-05-01 04:00:00,
2013-05-01 00:01:00,50.4,46.1,30.25,East,90,2.0,2.0,85,0.00,,---,0.00,VWS V14.01,2013-05-01 04:01:00,
2013-05-01 00:06:00,50.3,46.0,30.24,ENE,71,0.0,5.0,85,0.00,,---,0.00,VWS V14.01,2013-05-01 04:06:00,
2013-05-01 00:11:00,50.3,46.0,30.25,NE,46,2.0,5.0,85,0.00,,---,0.00,VWS V14.01,2013-05-01 04:11:00,
2013-05-01 00:16:00,50.3,46.0,30.25,East,81,1.0,5.0,85,0.00,,---,0.00,VWS V14.01,2013-05-01 04:16:00,
2013-05-01 00:21:00,50.3,46.0,30.25,ENE,57,1.0,5.0,85,0.00,,---,0.00,VWS V14.01,2013-05-01 04:21:00,
2013-05-01 00:26:00,50.3,46.0,30.25,NNE,13,2.0,5.0,85,0.00,,---,0.00,VWS V14.01,2013-05-01 04:26:00,
2013-05-01 00:30:00,50.6,46.3,30.25,East,87,1.0,8.0,85,0.00,,---,0.04,VWS V14.01,2013-05-01 04:30:00,
2013-05-01 00:31:00,50.3,46.0,30.26,ENE,63,1.0,1.0,85,0.00,,---,0.00,VWS V14.01,2013-05-01 04:31:00,
2013-05-01 00:36:00,50.2,45.9,30.26,NE,54,3.0,3.0,85,0.00,,---,0.00,VWS V14.01,2013-05-01 04:36:00,
2013-05-01 00:41:00,50.1,45.8,30.26,North,5,3.0,4.0,85,0.00,,---,0.00,VWS V14.01,2013-05-01 04:41:00,
2013-05-01 00:46:00,50.0,45.7,30.26,NNW,336,3.0,4.0,85,0.00,,---,0.00,VWS V14.01,2013-05-01 04:46:00,
2013-05-01 00:51:00,49.9,45.6,30.26,East,85,1.0,4.0,85,0.00,,---,0.00,VWS V14.01,2013-05-01 04:51:00,
2013-05-01 00:56:00,49.9,45.6,30.26,ENE,72,3.0,4.0,85,0.00,,---,0.00,VWS V14.01,2013-05-01 04:56:00,
2013-05-01 01:00:00,49.9,45.6,30.26,North,9,0.0,4.0,85,0.00,,---,0.00,VWS V15.00,2013-05-01 05:00:00,
2013-05-01 01:01:00,49.9,45.6,30.26,North,5,0.0,1.0,85,0.00,,---,0.00,VWS V14.01,2013-05-01 05:01:00,
2013-05-01 01:06:00,49.8,45.5,30.26,NE,51,0.0,7.0,85,0.00,,---,0.00,VWS V14.01,2013-05-01 05:06:00,
2013-05-01 01:11:00,49.7,45.4,30.26,NNE,28,0.0,7.0,85,0.00,,---,0.00,VWS V14.01,2013-05-01 05:11:00,
2013-05-01 01:16:00,49.6,45.6,30.26,NNE,25,2.0,7.0,86,0.00,,---,0.00,VWS V14.01,2013-05-01 05:16:00,
2013-05-01 01:21:00,49.6,45.6,30.26,ENE,57,2.0,7.0,86,0.00,,---,0.00,VWS V14.01,2013-05-01 05:21:00,
2013-05-01 01:26:00,49.5,45.5,30.26,ESE,119,2.0,7.0,86,0.00,,---,0.00,VWS V14.01,2013-05-01 05:26:00,
2013-05-01 01:30:00,50.3,46.0,30.25,NNW,333,1.0,5.0,85,0.00,,---,0.00,VWS V14.01,2013-05-01 05:30:00,
2013-05-01 01:31:00,49.4,45.4,30.26,ENE,72,0.0,2.0,86,0.00,,---,0.00,VWS V14.01,2013-05-01 05:31:00,
2013-05-01 01:36:00,49.3,45.3,30.26,East,83,0.0,3.0,86,0.00,,---,0.00,VWS V14.01,2013-05-01 05:36:00,
2013-05-01 01:41:00,49.2,45.2,30.26,NE,38,0.0,3.0,86,0.00,,---,0.00,VWS V14.01,2013-05-01 05:41:00,
2013-05-01 01:46:00,49.2,45.2,30.26,NE,47,0.0,4.0,86,0.00,,---,0.00,VWS V14.01,2013-05-01 05:46:00,
2013-05-01 01:51:00,49.1,45.1,30.26,NNE,30,0.0,4.0,86,0.00,,---,0.00,VWS V14.01,2013-05-01 05:51:00,
2013-05-01 01:56:00,48.9,44.9,30.26,North,350,2.0,4.0,86,0.00,,---,0.00,VWS V14.01,2013-05-01 05:56:00,
2013-05-01 02:00:00,49.9,45.6,30.26,North,9,0.0,4.0,85,0.00,,---,0.00,VWS V14.01,2013-05-01 06:00:00,
2013-05-01 02:01:00,48.6,44.6,30.26,North,11,0.0,3.0,86,0.00,,---,0.00,VWS V14.01,2013-05-01 06:01:00,
2013-05-01 02:06:00,48.4,44.7,30.26,NE,53,0.0,3.0,87,0.00,,---,0.00,VWS V14.01,2013-05-01 06:06:00,
2013-05-01 02:11:00,48.2,44.5,30.26,NE,49,0.0,3.0,87,0.00,,---,0.00,VWS V14.01,2013-05-01 06:11:00,
2013-05-01 02:16:00,48.0,44.3,30.26,NNE,32,0.0,4.0,87,0.00,,---,0.00,VWS V14.01,2013-05-01 06:16:00,
2013-05-01 02:21:00,47.8,44.1,30.26,NNE,32,0.0,4.0,87,0.00,,---,0.00,VWS V14.01,2013-05-01 06:21:00,
2013-05-01 02:26:00,47.8,44.1,30.26,NNE,32,0.0,4.0,87,0.00,,---,0.00,VWS V14.01,2013-05-01 06:26:00,
2013-05-01 02:30:00,49.4,45.4,30.26,ENE,67,0.0,7.0,86,0.00,,---,0.00,VWS V14.01,2013-05-01 06:30:00,
2013-05-01 02:31:00,47.7,44.0,30.26,NNW,342,0.0,3.0,87,0.00,,---,0.00,VWS V14.01,2013-05-01 06:31:00,
2013-05-01 02:36:00,47.8,44.1,30.26,NE,34,0.0,4.0,87,0.00,,---,0.00,VWS V14.01,2013-05-01 06:36:00,
2013-05-01 02:41:00,47.8,44.1,30.26,East,88,0.0,4.0,87,0.00,,---,0.00,VWS V14.01,2013-05-01 06:41:00,
2013-05-01 02:46:00,47.8,44.1,30.26,ENE,65,0.0,4.0,87,0.00,,---,0.00,VWS V14.01,2013-05-01 06:46:00,
2013-05-01 02:51:00,47.9,43.9,30.26,NNE,33,1.0,4.0,86,0.00,,---,0.00,VWS V14.01,2013-05-01 06:51:00,
2013-05-01 02:56:00,48.3,44.0,30.26,NE,44,1.0,7.0,85,0.00,,---,0.00,VWS V14.01,2013-05-01 06:56:00,
2013-05-01 03:00:00,48.7,44.7,30.26,NE,44,0.0,4.0,86,0.00,,---,0.00,VWS V14.01,2013-05-01 07:00:00,
2013-05-01 03:01:00,48.8,44.2,30.26,East,99,0.0,5.0,84,0.00,,---,0.00,VWS V14.01,2013-05-01 07:01:00,
2013-05-01 03:06:00,49.2,44.3,30.26,ENE,67,0.0,5.0,83,0.00,,---,0.00,VWS V14.01,2013-05-01 07:06:00,
2013-05-01 03:11:00,49.5,44.2,30.26,NNE,24,2.0,5.0,82,0.00,,---,0.00,VWS V14.01,2013-05-01 07:11:00,
2013-05-01 03:16:00,49.8,44.5,30.26,East,95,0.0,5.0,82,0.00,,---,0.00,VWS V14.01,2013-05-01 07:16:00,
2013-05-01 03:21:00,50.0,44.4,30.26,NNE,14,0.0,5.0,81,0.00,,---,0.00,VWS V14.01,2013-05-01 07:21:00,
2013-05-01 03:26:00,50.1,44.5,30.26,SE,129,0.0,8.0,81,0.00,,---,0.00,VWS V14.01,2013-05-01 07:26:00,
2013-05-01 03:30:00,47.7,44.0,30.26,NE,51,1.0,4.0,87,0.00,,---,0.00,VWS V14.01,2013-05-01 07:30:00,
2013-05-01 03:31:00,50.1,44.2,30.26,NE,48,0.0,3.0,80,0.00,,---,0.00,VWS V14.01,2013-05-01 07:31:00,
2013-05-01 03:36:00,50.1,44.2,30.26,NNE,32,0.0,4.0,80,0.00,,---,0.00,VWS V14.01,2013-05-01 07:36:00,
2013-05-01 03:41:00,50.2,44.3,30.26,WNW,286,2.0,6.0,80,0.00,,---,0.00,VWS V14.01,2013-05-01 07:41:00,
2013-05-01 03:46:00,50.2,44.3,30.26,ENE,62,4.0,6.0,80,0.00,,---,0.00,VWS V14.01,2013-05-01 07:46:00,
2013-05-01 03:51:00,50.2,44.6,30.26,NE,53,2.0,6.0,81,0.00,,---,0.00,VWS V14.01,2013-05-01 07:51:00,
2013-05-01 03:56:00,50.1,44.5,30.26,ESE,119,2.0,10.0,81,0.00,,---,0.00,VWS V14.01,2013-05-01 07:56:00,
2013-05-01 04:00:00,48.6,44.0,30.26,East,97,5.0,7.0,84,0.00,,---,0.00,VWS V14.01,2013-05-01 08:00:00,
2013-05-01 04:01:00,50.0,44.4,30.27,ENE,68,1.0,3.0,81,0.00,,---,0.00,VWS V14.01,2013-05-01 08:01:00,
2013-05-01 04:06:00,49.9,44.3,30.27,ENE,72,0.0,5.0,81,0.00,,---,0.00,VWS V14.01,2013-05-01 08:06:00,
2013-05-01 04:11:00,49.9,44.3,30.27,North,360,1.0,5.0,81,0.00,,---,0.00,VWS V14.01,2013-05-01 08:11:00,
2013-05-01 04:16:00,49.8,44.5,30.27,NNE,22,1.0,6.0,82,0.00,,---,0.00,VWS V14.01,2013-05-01 08:16:00,
2013-05-01 04:21:00,49.6,44.3,30.27,ENE,73,0.0,6.0,82,0.00,,---,0.00,VWS V14.01,2013-05-01 08:21:00,
2013-05-01 04:26:00,49.5,44.2,30.27,East,80,1.0,6.0,82,0.00,,---,0.00,VWS V14.01,2013-05-01 08:26:00,
2013-05-01 04:30:00,50.1,44.2,30.26,ENE,76,2.0,8.0,80,0.00,,---,0.00,VWS V14.01,2013-05-01 08:30:00,
2013-05-01 04:31:00,49.4,44.5,30.27,NE,55,0.0,2.0,83,0.00,,---,0.00,VWS V14.01,2013-05-01 08:31:00,
2013-05-01 04:36:00,49.1,44.2,30.27,NE,48,0.0,3.0,83,0.00,,---,0.00,VWS V14.01,2013-05-01 08:36:00,
2013-05-01 04:41:00,49.0,44.4,30.27,ESE,103,1.0,5.0,84,0.00,,---,0.00,VWS V14.01,2013-05-01 08:41:00,
2013-05-01 04:46:00,49.0,44.4,30.27,East,79,1.0,6.0,84,0.00,,---,0.00,VWS V14.01,2013-05-01 08:46:00,
2013-05-01 04:51:00,49.1,44.5,30.27,ENE,77,2.0,6.0,84,0.00,,---,0.00,VWS V14.01,2013-05-01 08:51:00,
2013-05-01 04:56:00,49.2,44.6,30.27,SE,140,1.0,6.0,84,0.00,,---,0.00,VWS V14.01,2013-05-01 08:56:00,
2013-05-01 05:00:00,50.0,44.4,30.27,East,95,0.0,10.0,81,0.00,,---,0.00,VWS V14.01,2013-05-01 09:00:00,
2013-05-01 05:01:00,49.2,44.9,30.27,East,79,0.0,5.0,85,0.00,,---,0.00,VWS V14.01,2013-05-01 09:01:00,
2013-05-01 05:06:00,49.2,44.9,30.27,NNE,17,6.0,6.0,85,0.00,,---,0.00,VWS V14.01,2013-05-01 09:06:00,
2013-05-01 05:11:00,49.1,44.8,30.28,East,92,1.0,6.0,85,0.00,,---,0.00,VWS V14.01,2013-05-01 09:11:00,
2013-05-01 05:16:00,49.1,44.8,30.28,NE,35,0.0,6.0,85,0.00,,---,0.00,VWS V14.01,2013-05-01 09:16:00,
2013-05-01 05:20:00,49.0,45.0,30.28,North,5,0.0,6.0,86,0.00,,---,0.00,VWS V14.01,2013-05-01 09:20:00,
2013-05-01 05:25:00,48.9,44.9,30.28,NNE,33,0.0,6.0,86,0.00,,---,0.00,VWS V14.01,2013-05-01 09:25:00,
2013-05-01 05:30:00,48.7,44.7,30.28,North,5,0.0,0.0,86,0.00,,---,0.00,VWS V14.01,2013-05-01 09:30:00,
2013-05-01 05:35:00,48.4,44.4,30.29,NNE,20,0.0,2.0,86,0.00,,---,0.00,VWS V14.01,2013-05-01 09:35:00,
2013-05-01 05:40:00,48.2,44.5,30.29,NNE,21,0.0,2.0,87,0.00,,---,0.00,VWS V14.01,2013-05-01 09:40:00,
2013-05-01 05:45:00,48.0,44.3,30.29,NE,52,0.0,3.0,87,0.00,,---,0.00,VWS V14.01,2013-05-01 09:45:00,
2013-05-01 05:50:00,47.8,44.1,30.29,North,350,0.0,3.0,87,0.00,,---,0.00,VWS V14.01,2013-05-01 09:50:00,
2013-05-01 05:55:00,47.4,44.0,30.30,NNE,24,0.0,4.0,88,0.00,,---,0.00,VWS V14.01,2013-05-01 09:55:00,
2013-05-01 06:00:00,47.0,43.6,30.29,ENE,68,3.0,3.0,88,0.00,,---,0.00,VWS V14.01,2013-05-01 10:00:00,
2013-05-01 06:05:00,46.5,43.1,30.30,North,349,3.0,4.0,88,0.00,,---,0.00,VWS V14.01,2013-05-01 10:05:00,
2013-05-01 06:10:00,46.1,42.8,30.30,NW,305,0.0,6.0,88,0.00,,---,0.00,VWS V14.01,2013-05-01 10:10:00,
2013-05-01 06:15:00,45.8,42.8,30.30,North,10,1.0,6.0,89,0.00,,---,0.00,VWS V14.01,2013-05-01 10:15:00,
2013-05-01 06:20:00,45.5,42.5,30.30,NNE,19,1.0,6.0,89,0.00,,---,0.00,VWS V14.01,2013-05-01 10:20:00,
2013-05-01 06:25:00,45.4,42.6,30.31,NE,42,0.0,6.0,90,0.00,,---,0.00,VWS V14.01,2013-05-01 10:25:00,
2013-05-01 06:30:00,45.3,42.5,30.31,NE,44,1.0,3.0,90,0.00,,---,0.00,VWS V14.01,2013-05-01 10:30:00,
2013-05-01 06:35:00,45.3,42.5,30.31,NNE,30,2.0,4.0,90,0.00,,---,0.00,VWS V14.01,2013-05-01 10:35:00,
2013-05-01 06:40:00,45.4,42.6,30.31,North,355,0.0,4.0,90,0.00,,---,0.00,VWS V14.01,2013-05-01 10:40:00,
2013-05-01 06:45:00,45.4,42.6,30.32,WNW,289,0.0,4.0,90,0.00,,---,0.00,VWS V14.01,2013-05-01 10:45:00,
2013-05-01 06:50:00,45.5,42.7,30.32,East,90,1.0,4.0,90,0.00,,---,0.00,VWS V14.01,2013-05-01 10:50:00,
2013-05-01 06:55:00,45.6,42.8,30.32,North,10,2.0,4.0,90,0.00,,---,0.00,VWS V14.01,2013-05-01 10:55:00,
2013-05-01 07:00:00,45.6,42.8,30.32,NE,37,0.0,2.0,90,0.00,,---,0.00,VWS V14.01,2013-05-01 11:00:00,
2013-05-01 07:05:00,45.8,43.0,30.32,NNE,18,3.0,5.0,90,0.00,,---,0.00,VWS V14.01,2013-05-01 11:05:00,
2013-05-01 07:10:00,46.3,43.5,30.32,ENE,67,2.0,5.0,90,0.00,,---,0.00,VWS V14.01,2013-05-01 11:10:00,
2013-05-01 07:15:00,46.9,43.8,30.32,SW,224,1.0,5.0,89,0.00,,---,0.00,VWS V14.01,2013-05-01 11:15:00,
2013-05-01 07:20:00,47.5,44.4,30.33,NW,320,2.0,5.0,89,0.00,,---,0.00,VWS V14.01,2013-05-01 11:20:00,
2013-05-01 07:25:00,48.3,44.9,30.33,ENE,78,4.0,6.0,88,0.00,,---,0.00,VWS V14.01,2013-05-01 11:25:00,
2013-05-01 07:30:00,49.1,45.4,30.33,North,9,4.0,4.0,87,0.00,,---,0.00,VWS V14.01,2013-05-01 11:30:00,
2013-05-01 07:35:00,49.6,45.6,30.33,North,360,2.0,6.0,86,0.00,,---,0.00,VWS V14.01,2013-05-01 11:35:00,
2013-05-01 07:40:00,50.3,46.0,30.33,NNE,33,1.0,8.0,85,0.00,,---,0.00,VWS V14.01,2013-05-01 11:40:00,
2013-05-01 07:45:00,50.9,46.2,30.33,ENE,57,0.0,8.0,84,0.00,,---,0.00,VWS V14.01,2013-05-01 11:45:00,
2013-05-01 07:50:00,51.4,46.7,30.33,East,98,2.0,8.0,84,0.00,,---,0.00,VWS V14.01,2013-05-01 11:50:00,
2013-05-01 07:55:00,52.0,47.0,30.33,North,5,2.0,8.0,83,0.00,,---,0.00,VWS V14.01,2013-05-01 11:55:00,
2013-05-01 08:00:00,52.5,47.2,30.33,NE,53,2.0,6.0,82,0.00,,---,0.00,VWS V14.01,2013-05-01 12:00:00,
2013-05-01 08:05:00,53.0,47.7,30.33,NE,41,0.0,7.0,82,0.00,,---,0.00,VWS V14.01,2013-05-01 12:05:00,
2013-05-01 08:10:00,53.4,47.7,30.33,NE,51,1.0,7.0,81,0.00,,---,0.00,VWS V14.01,2013-05-01 12:10:00,
2013-05-01 08:15:00,53.8,47.8,30.33,NE,43,3.0,7.0,80,0.00,,---,0.00,VWS V14.01,2013-05-01 12:15:00,
2013-05-01 08:20:00,54.2,48.2,30.34,ENE,63,2.0,7.0,80,0.00,,---,0.00,VWS V14.01,2013-05-01 12:20:00,
2013-05-01 08:25:00,54.7,48.7,30.34,North,5,2.0,7.0,80,0.00,,---,0.00,VWS V14.01,2013-05-01 12:25:00,
2013-05-01 08:30:00,55.3,48.9,30.34,West,271,2.0,2.0,79,0.00,,---,0.00,VWS V14.01,2013-05-01 12:30:00,
2013-05-01 08:35:00,55.9,48.8,30.34,NE,48,3.0,7.0,77,0.00,,---,0.00,VWS V14.01,2013-05-01 12:35:00,
2013-05-01 08:40:00,56.5,48.7,30.34,East,94,2.0,7.0,75,0.00,,---,0.00,VWS V14.01,2013-05-01 12:40:00,
2013-05-01 08:45:00,57.0,48.8,30.34,East,100,2.0,8.0,74,0.00,,---,0.00,VWS V14.01,2013-05-01 12:45:00,
2013-05-01 08:50:00,57.3,47.2,30.34,SE,136,2.0,9.0,69,0.00,,---,0.00,VWS V14.01,2013-05-01 12:50:00,
2013-05-01 08:55:00,57.6,46.7,30.34,ENE,59,5.0,9.0,67,0.00,,---,0.00,VWS V14.01,2013-05-01 12:55:00,
2013-05-01 09:00:00,57.9,46.6,30.34,NE,50,7.0,9.0,66,0.00,,---,0.00,VWS V14.01,2013-05-01 13:00:00,
2013-05-01 09:05:00,58.2,47.3,30.35,ENE,76,2.0,9.0,67,0.00,,---,0.00,VWS V14.01,2013-05-01 13:05:00,
2013-05-01 09:10:00,58.3,47.4,30.35,ESE,111,4.0,10.0,67,0.00,,---,0.00,VWS V14.01,2013-05-01 13:10:00,
2013-05-01 09:15:00,58.5,47.2,30.34,East,94,2.0,10.0,66,0.00,,---,0.00,VWS V14.01,2013-05-01 13:15:00,
2013-05-01 09:20:00,58.8,46.7,30.35,East,80,6.0,10.0,64,0.00,,---,0.00,VWS V14.01,2013-05-01 13:20:00,
2013-05-01 09:25:00,58.7,44.4,30.35,ESE,105,4.0,10.0,59,0.00,,---,0.00,VWS V14.01,2013-05-01 13:25:00,
2013-05-01 09:30:00,58.7,44.9,30.35,East,90,1.0,5.0,60,0.00,,---,0.00,VWS V14.01,2013-05-01 13:30:00,
2013-05-01 09:35:00,58.7,46.2,30.36,ESE,103,3.0,11.0,63,0.00,,---,0.00,VWS V14.01,2013-05-01 13:35:00,
2013-05-01 09:40:00,58.7,46.6,30.36,NE,41,3.0,12.0,64,0.00,,---,0.00,VWS V14.01,2013-05-01 13:40:00,
2013-05-01 09:45:00,58.7,46.2,30.36,East,99,3.0,12.0,63,0.00,,---,0.00,VWS V14.01,2013-05-01 13:45:00,
2013-05-01 09:50:00,59.0,46.4,30.37,ENE,71,2.0,12.0,63,0.00,,---,0.00,VWS V14.01,2013-05-01 13:50:00,
2013-05-01 09:55:00,59.4,45.5,30.37,ENE,71,3.0,12.0,60,0.00,,---,0.00,VWS V14.01,2013-05-01 13:55:00,
2013-05-01 10:00:00,59.5,46.9,30.37,North,350,4.0,6.0,63,0.00,,---,0.00,VWS V14.01,2013-05-01 14:00:00,
2013-05-01 10:05:00,59.6,47.4,30.37,NNW,346,6.0,10.0,64,0.00,,---,0.00,VWS V14.01,2013-05-01 14:05:00,
2013-05-01 10:10:00,59.7,47.9,30.37,NNW,331,3.0,10.0,65,0.00,,---,0.00,VWS V14.01,2013-05-01 14:10:00,
2013-05-01 10:15:00,59.9,48.1,30.37,NW,325,5.0,10.0,65,0.00,,---,0.00,VWS V14.01,2013-05-01 14:15:00,
2013-05-01 10:20:00,60.0,48.2,30.38,NE,44,7.0,10.0,65,0.00,,---,0.00,VWS V14.01,2013-05-01 14:20:00,
2013-05-01 10:25:00,59.9,47.3,30.38,SE,143,3.0,10.0,63,0.00,,---,0.00,VWS V14.01,2013-05-01 14:25:00,
2013-05-01 10:30:00,59.8,47.2,30.38,East,84,1.0,6.0,63,0.00,,---,0.00,VWS V14.01,2013-05-01 14:30:00,
2013-05-01 10:35:00,59.9,46.4,30.38,ESE,115,4.0,10.0,61,0.00,,---,0.00,VWS V14.01,2013-05-01 14:35:00,
2013-05-01 10:40:00,60.0,46.5,30.38,ESE,117,4.0,13.0,61,0.00,,---,0.00,VWS V14.01,2013-05-01 14:40:00,
2013-05-01 10:45:00,60.4,46.5,30.38,SSE,161,2.0,13.0,60,0.00,,---,0.00,VWS V14.01,2013-05-01 14:45:00,
2013-05-01 10:50:00,61.0,46.6,30.38,North,355,6.0,13.0,59,0.00,,---,0.00,VWS V14.01,2013-05-01 14:50:00,
2013-05-01 10:55:00,61.2,45.9,30.38,NNE,30,4.0,13.0,57,0.00,,---,0.00,VWS V14.01,2013-05-01 14:55:00,
2013-05-01 11:00:00,60.8,46.0,30.38,ESE,109,1.0,6.0,58,0.00,,---,0.00,VWS V14.01,2013-05-01 15:00:00,
2013-05-01 11:05:00,60.5,46.1,30.38,ENE,60,2.0,10.0,59,0.00,,---,0.00,VWS V14.01,2013-05-01 15:05:00,
2013-05-01 11:10:00,60.2,47.2,30.38,NNE,28,7.0,15.0,62,0.00,,---,0.00,VWS V14.01,2013-05-01 15:10:00,
2013-05-01 11:15:00,59.9,47.3,30.38,ESE,118,4.0,15.0,63,0.00,,---,0.00,VWS V14.01,2013-05-01 15:15:00,
2013-05-01 11:20:00,60.0,48.2,30.38,NNW,336,2.0,15.0,65,0.00,,---,0.00,VWS V14.01,2013-05-01 15:20:00,
2013-05-01 11:25:00,60.1,46.2,30.38,ENE,57,3.0,15.0,60,0.00,,---,0.00,VWS V14.01,2013-05-01 15:25:00,
2013-05-01 11:30:00,60.0,47.0,30.38,East,100,5.0,5.0,62,0.00,,---,0.00,VWS V14.01,2013-05-01 15:30:00,
2013-05-01 11:35:00,60.3,48.5,30.38,East,98,3.0,8.0,65,0.00,,---,0.00,VWS V14.01,2013-05-01 15:35:00,
2013-05-01 11:40:00,60.1,48.3,30.38,ENE,69,10.0,14.0,65,0.00,,---,0.00,VWS V14.01,2013-05-01 15:40:00,
2013-05-01 11:45:00,59.1,49.0,30.39,NE,55,2.0,14.0,69,0.00,,---,0.00,VWS V14.01,2013-05-01 15:45:00,
2013-05-01 11:50:00,58.6,49.6,30.38,NE,40,2.0,14.0,72,0.00,,---,0.00,VWS V14.01,2013-05-01 15:50:00,
2013-05-01 11:55:00,58.2,49.6,30.38,East,93,10.0,14.0,73,0.00,,---,0.00,VWS V14.01,2013-05-01 15:55:00,
2013-05-01 12:00:00,57.7,49.5,30.39,North,355,6.0,12.0,74,0.00,,---,0.00,VWS V14.01,2013-05-01 16:00:00,
2013-05-01 12:05:00,57.2,50.1,30.38,East,80,5.0,14.0,77,0.00,,---,0.00,VWS V14.01,2013-05-01 16:05:00,
2013-05-01 12:10:00,57.2,50.1,30.38,ENE,75,5.0,14.0,77,0.00,,---,0.00,VWS V14.01,2013-05-01 16:10:00,
2013-05-01 12:15:00,57.0,50.2,30.38,East,80,6.0,18.0,78,0.00,,---,0.00,VWS V14.01,2013-05-01 16:15:00,
2013-05-01 12:20:00,57.1,50.3,30.38,NE,44,3.0,18.0,78,0.00,,---,0.00,VWS V14.01,2013-05-01 16:20:00,
2013-05-01 12:25:00,56.9,50.5,30.38,NNE,14,3.0,18.0,79,0.00,,---,0.00,VWS V14.01,2013-05-01 16:25:00,
2013-05-01 12:30:00,56.8,50.4,30.38,East,101,2.0,4.0,79,0.00,,---,0.00,VWS V14.01,2013-05-01 16:30:00,
2013-05-01 12:35:00,56.7,50.3,30.38,East,87,9.0,12.0,79,0.00,,---,0.00,VWS V14.01,2013-05-01 16:35:00,
2013-05-01 12:40:00,56.5,50.1,30.38,SW,223,1.0,12.0,79,0.00,,---,0.00,VWS V14.01,2013-05-01 16:40:00,
2013-05-01 12:45:00,56.7,50.3,30.38,NNW,338,4.0,12.0,79,0.00,,---,0.00,VWS V14.01,2013-05-01 16:45:00,
2013-05-01 12:50:00,56.5,49.7,30.38,North,5,3.0,16.0,78,0.00,,---,0.00,VWS V14.01,2013-05-01 16:50:00,
2013-05-01 12:55:00,56.3,49.5,30.38,East,79,7.0,16.0,78,0.00,,---,0.00,VWS V14.01,2013-05-01 16:55:00,
2013-05-01 13:00:00,56.3,49.5,30.38,North,350,3.0,9.0,78,0.00,,---,0.00,VWS V14.01,2013-05-01 17:00:00,
2013-05-01 13:05:00,55.9,49.5,30.38,NW,316,2.0,13.0,79,0.00,,---,0.00,VWS V14.01,2013-05-01 17:05:00,
2013-05-01 13:10:00,55.8,49.4,30.38,ENE,69,4.0,13.0,79,0.00,,---,0.00,VWS V14.01,2013-05-01 17:10:00,
2013-05-01 13:15:00,55.9,49.5,30.38,ENE,67,5.0,13.0,79,0.00,,---,0.00,VWS V14.01,2013-05-01 17:15:00,
2013-05-01 13:20:00,55.6,48.9,30.38,SE,136,4.0,14.0,78,0.00,,---,0.00,VWS V14.01,2013-05-01 17:20:00,
2013-05-01 13:25:00,55.7,50.0,30.39,ENE,78,4.0,14.0,81,0.00,,---,0.00,VWS V14.01,2013-05-01 17:25:00,
2013-05-01 13:30:00,56.0,49.6,30.39,East,100,11.0,14.0,79,0.00,,---,0.00,VWS V14.01,2013-05-01 17:30:00,
2013-05-01 13:34:00,55.9,49.5,30.39,NE,56,3.0,14.0,79,0.00,,---,0.00,VWS V14.01,2013-05-01 17:34:00,
2013-05-01 13:39:00,56.3,50.2,30.39,NE,38,3.0,14.0,80,0.00,,---,0.00,VWS V14.01,2013-05-01 17:39:00,
2013-05-01 13:44:00,56.1,49.7,30.38,ENE,77,9.0,14.0,79,0.00,,---,0.00,VWS V14.01,2013-05-01 17:44:00,
2013-05-01 13:49:00,56.1,49.7,30.38,NE,55,4.0,14.0,79,0.00,,---,0.00,VWS V14.01,2013-05-01 17:49:00,
2013-05-01 13:54:00,55.7,49.3,30.39,ENE,57,10.0,15.0,79,0.00,,---,0.00,VWS V14.01,2013-05-01 17:54:00,
2013-05-01 13:59:00,54.9,49.2,30.39,East,86,3.0,3.0,81,0.00,,---,0.00,VWS V14.01,2013-05-01 17:59:00,
2013-05-01 14:00:00,56.3,49.5,30.38,NNE,17,6.0,16.0,78,0.00,,---,0.00,VWS V14.01,2013-05-01 18:00:00,
2013-05-01 14:04:00,54.2,48.8,30.39,ESE,115,3.0,16.0,82,0.00,,---,0.00,VWS V14.01,2013-05-01 18:04:00,
2013-05-01 14:09:00,54.1,49.4,30.39,NNE,19,6.0,16.0,84,0.00,,---,0.00,VWS V14.01,2013-05-01 18:09:00,
2013-05-01 14:14:00,54.1,49.1,30.39,ENE,61,4.0,16.0,83,0.00,,---,0.00,VWS V14.01,2013-05-01 18:14:00,
2013-05-01 14:19:00,54.2,49.2,30.39,NNE,30,5.0,16.0,83,0.00,,---,0.00,VWS V14.01,2013-05-01 18:19:00,
2013-05-01 14:24:00,54.0,49.0,30.39,North,360,2.0,16.0,83,0.00,,---,0.00,VWS V14.01,2013-05-01 18:24:00,
2013-05-01 14:29:00,53.8,48.8,30.39,NNE,29,3.0,6.0,83,0.00,,---,0.00,VWS V14.01,2013-05-01 18:29:00,
2013-05-01 14:30:00,56.0,49.6,30.39,NNE,15,5.0,14.0,79,0.00,,---,0.00,VWS V14.01,2013-05-01 18:30:00,
2013-05-01 14:34:00,53.6,48.6,30.39,ESE,119,3.0,9.0,83,0.00,,---,0.00,VWS V14.01,2013-05-01 18:34:00,
2013-05-01 14:39:00,53.6,48.2,30.39,ENE,61,3.0,13.0,82,0.00,,---,0.00,VWS V14.01,2013-05-01 18:39:00,
2013-05-01 14:44:00,53.6,48.2,30.39,ESE,103,8.0,13.0,82,0.00,,---,0.00,VWS V14.01,2013-05-01 18:44:00,
2013-05-01 14:49:00,53.6,48.2,30.39,East,98,5.0,13.0,82,0.00,,---,0.00,VWS V14.01,2013-05-01 18:49:00,
2013-05-01 14:54:00,53.8,48.4,30.39,East,96,10.0,13.0,82,0.00,,---,0.00,VWS V14.01,2013-05-01 18:54:00,
2013-05-01 14:59:00,53.9,48.5,30.39,ENE,60,4.0,4.0,82,0.00,,---,0.00,VWS V14.01,2013-05-01 18:59:00,
2013-05-01 15:00:00,55.0,49.3,30.39,East,84,3.0,15.0,81,0.00,,---,0.00,VWS V14.01,2013-05-01 19:00:00,
2013-05-01 15:04:00,54.0,48.6,30.39,ENE,65,4.0,13.0,82,0.00,,---,0.00,VWS V14.01,2013-05-01 19:04:00,
2013-05-01 15:09:00,54.1,48.7,30.39,NE,47,4.0,13.0,82,0.00,,---,0.00,VWS V14.01,2013-05-01 19:09:00,
2013-05-01 15:14:00,54.2,48.8,30.39,East,84,7.0,13.0,82,0.00,,---,0.00,VWS V14.01,2013-05-01 19:14:00,
2013-05-01 15:19:00,54.1,49.1,30.39,NE,34,4.0,13.0,83,0.00,,---,0.00,VWS V14.01,2013-05-01 19:19:00,
2013-05-01 15:24:00,54.1,48.4,30.39,ESE,117,4.0,13.0,81,0.00,,---,0.00,VWS V14.01,2013-05-01 19:24:00,
2013-05-01 15:29:00,53.9,48.5,30.39,NE,43,8.0,14.0,82,0.00,,---,0.00,VWS V14.01,2013-05-01 19:29:00,
2013-05-01 15:30:00,53.8,48.4,30.39,ENE,62,4.0,16.0,82,0.00,,---,0.00,VWS V14.01,2013-05-01 19:30:00,
2013-05-01 15:34:00,54.0,49.0,30.39,East,100,9.0,11.0,83,0.00,,---,0.00,VWS V14.01,2013-05-01 19:34:00,
2013-05-01 15:39:00,54.3,48.6,30.39,SE,137,6.0,11.0,81,0.00,,---,0.00,VWS V14.01,2013-05-01 19:39:00,
2013-05-01 15:44:00,54.7,49.0,30.39,ENE,71,5.0,11.0,81,0.00,,---,0.00,VWS V14.01,2013-05-01 19:44:00,
2013-05-01 15:49:00,54.9,48.9,30.38,ESE,115,2.0,11.0,80,0.00,,---,0.00,VWS V14.01,2013-05-01 19:49:00,
2013-05-01 15:54:00,55.2,49.5,30.38,ENE,74,2.0,13.0,81,0.00,,---,0.00,VWS V14.01,2013-05-01 19:54:00,
2013-05-01 15:59:00,55.4,49.7,30.39,ENE,76,10.0,13.0,81,0.00,,---,0.00,VWS V14.01,2013-05-01 19:59:00,
2013-05-01 16:00:00,55.5,49.4,30.39,East,82,7.0,13.0,80,0.00,,---,0.00,VWS V15.00,2013-05-01 20:00:00,
2013-05-01 16:04:00,55.3,48.9,30.39,East,88,7.0,13.0,79,0.00,,---,0.00,VWS V14.01,2013-05-01 20:04:00,
2013-05-01 16:09:00,55.2,49.2,30.38,East,96,8.0,14.0,80,0.00,,---,0.00,VWS V14.01,2013-05-01 20:09:00,
2013-05-01 16:14:00,54.8,48.8,30.38,SE,134,1.0,14.0,80,0.00,,---,0.00,VWS V14.01,2013-05-01 20:14:00,
2013-05-01 16:19:00,55.0,49.3,30.38,ENE,72,9.0,14.0,81,0.00,,---,0.00,VWS V14.01,2013-05-01 20:19:00,
2013-05-01 16:24:00,55.2,49.2,30.39,NNE,31,4.0,14.0,80,0.00,,---,0.00,VWS V14.01,2013-05-01 20:24:00,
2013-05-01 16:29:00,55.0,49.0,30.38,East,92,8.0,14.0,80,0.00,,---,0.00,VWS V14.01,2013-05-01 20:29:00,
2013-05-01 16:30:00,53.9,48.5,30.39,NE,43,8.0,14.0,82,0.00,,---,0.00,VWS V14.01,2013-05-01 20:30:00,
2013-05-01 16:34:00,54.8,49.1,30.38,NNE,19,1.0,9.0,81,0.00,,---,0.00,VWS V14.01,2013-05-01 20:34:00,
2013-05-01 16:39:00,54.8,49.1,30.39,East,96,3.0,14.0,81,0.00,,---,0.00,VWS V14.01,2013-05-01 20:39:00,
2013-05-01 16:44:00,54.5,48.5,30.39,NNW,333,4.0,14.0,80,0.00,,---,0.00,VWS V14.01,2013-05-01 20:44:00,
2013-05-01 16:49:00,54.5,48.8,30.39,East,99,9.0,14.0,81,0.00,,---,0.00,VWS V14.01,2013-05-01 20:49:00,
2013-05-01 16:54:00,54.4,49.0,30.39,ENE,71,4.0,14.0,82,0.00,,---,0.00,VWS V14.01,2013-05-01 20:54:00,
2013-05-01 16:59:00,54.5,48.8,30.39,NNE,19,2.0,14.0,81,0.00,,---,0.00,VWS V14.01,2013-05-01 20:59:00,
2013-05-01 17:00:00,55.5,49.4,30.39,East,82,7.0,13.0,80,0.00,,---,0.00,VWS V14.01,2013-05-01 21:00:00,
2013-05-01 17:04:00,54.4,48.7,30.39,North,355,3.0,11.0,81,0.00,,---,0.00,VWS V14.01,2013-05-01 21:04:00,
2013-05-01 17:09:00,54.2,48.5,30.39,SE,132,3.0,11.0,81,0.00,,---,0.00,VWS V14.01,2013-05-01 21:09:00,
2013-05-01 17:14:00,54.0,48.6,30.39,ENE,74,9.0,11.0,82,0.00,,---,0.00,VWS V14.01,2013-05-01 21:14:00,
2013-05-01 17:19:00,53.8,48.4,30.39,East,89,7.0,13.0,82,0.00,,---,0.00,VWS V14.01,2013-05-01 21:19:00,
2013-05-01 17:24:00,53.7,48.7,30.39,SE,127,1.0,13.0,83,0.00,,---,0.00,VWS V14.01,2013-05-01 21:24:00,
2013-05-01 17:29:00,53.5,48.5,30.39,East,92,6.0,13.0,83,0.00,,---,0.00,VWS V14.01,2013-05-01 21:29:00,
2013-05-01 17:30:00,55.0,49.0,30.38,East,92,8.0,14.0,80,0.00,,---,0.00,VWS V14.01,2013-05-01 21:30:00,
2013-05-01 17:34:00,53.4,48.4,30.39,East,94,5.0,9.0,83,0.00,,---,0.00,VWS V14.01,2013-05-01 21:34:00,
2013-05-01 17:39:00,53.3,48.3,30.39,North,5,2.0,10.0,83,0.00,,---,0.00,VWS V14.01,2013-05-01 21:39:00,
2013-05-01 17:44:00,53.1,48.1,30.39,ENE,60,7.0,11.0,83,0.00,,---,0.00,VWS V14.01,2013-05-01 21:44:00,
2013-05-01 17:49:00,52.9,48.2,30.39,East,100,9.0,13.0,84,0.00,,---,0.00,VWS V14.01,2013-05-01 21:49:00,
2013-05-01 17:54:00,52.7,48.0,30.39,ENE,71,2.0,13.0,84,0.00,,---,0.00,VWS V14.01,2013-05-01 21:54:00,
2013-05-01 17:59:00,52.6,48.2,30.39,ESE,113,2.0,13.0,85,0.00,,---,0.00,VWS V14.01,2013-05-01 21:59:00,
2013-05-01 18:00:00,54.5,48.8,30.39,NNE,19,1.0,14.0,81,0.00,,---,0.00,VWS V14.01,2013-05-01 22:00:00,
2013-05-01 18:04:00,52.3,48.2,30.40,NE,38,3.0,13.0,86,0.00,,---,0.00,VWS V14.01,2013-05-01 22:04:00,
2013-05-01 18:09:00,52.2,48.2,30.40,ESE,109,5.0,13.0,86,0.00,,---,0.00,VWS V14.01,2013-05-01 22:09:00,
2013-05-01 18:14:00,52.2,48.2,30.40,NE,51,6.0,13.0,86,0.00,,---,0.00,VWS V14.01,2013-05-01 22:14:00,
2013-05-01 18:19:00,52.0,47.6,30.40,ESE,117,5.0,13.0,85,0.00,,---,0.00,VWS V14.01,2013-05-01 22:19:00,
2013-05-01 18:24:00,51.7,47.7,30.40,WNW,294,3.0,13.0,86,0.00,,---,0.00,VWS V14.01,2013-05-01 22:24:00,
2013-05-01 18:29:00,51.5,47.5,30.40,East,81,5.0,13.0,86,0.00,,---,0.00,VWS V14.01,2013-05-01 22:29:00,
2013-05-01 18:30:00,53.5,48.5,30.39,ENE,59,7.0,13.0,83,0.00,,---,0.00,VWS V14.01,2013-05-01 22:30:00,
2013-05-01 18:34:00,51.5,47.8,30.40,ENE,65,3.0,9.0,87,0.00,,---,0.00,VWS V14.01,2013-05-01 22:34:00,
2013-05-01 18:39:00,51.5,47.8,30.40,East,94,5.0,9.0,87,0.00,,---,0.00,VWS V14.01,2013-05-01 22:39:00,
2013-05-01 18:44:00,51.5,47.5,30.40,NE,56,6.0,9.0,86,0.00,,---,0.00,VWS V14.01,2013-05-01 22:44:00,
2013-05-01 18:49:00,51.3,47.6,30.40,NE,34,3.0,9.0,87,0.00,,---,0.00,VWS V14.01,2013-05-01 22:49:00,
2013-05-01 18:54:00,51.1,47.4,30.40,ENE,76,4.0,9.0,87,0.00,,---,0.00,VWS V14.01,2013-05-01 22:54:00,
2013-05-01 18:59:00,51.0,47.6,30.40,SE,125,1.0,9.0,88,0.00,,---,0.00,VWS V14.01,2013-05-01 22:59:00,
2013-05-01 19:00:00,52.5,48.1,30.39,ENE,75,8.0,13.0,85,0.00,,---,0.00,VWS V14.01,2013-05-01 23:00:00,
2013-05-01 19:04:00,50.8,47.4,30.40,East,86,5.0,8.0,88,0.00,,---,0.00,VWS V14.01,2013-05-01 23:04:00,
2013-05-01 19:09:00,50.6,47.2,30.40,East,98,2.0,8.0,88,0.00,,---,0.00,VWS V14.01,2013-05-01 23:09:00,
2013-05-01 19:14:00,50.6,47.2,30.40,East,80,1.0,8.0,88,0.00,,---,0.00,VWS V14.01,2013-05-01 23:14:00,
2013-05-01 19:19:00,50.5,47.4,30.40,ESE,110,3.0,8.0,89,0.00,,---,0.00,VWS V14.01,2013-05-01 23:19:00,
2013-05-01 19:24:00,50.3,46.9,30.40,ENE,59,0.0,8.0,88,0.00,,---,0.00,VWS V14.01,2013-05-01 23:24:00,
2013-05-01 19:29:00,50.1,47.0,30.40,ENE,60,0.0,8.0,89,0.00,,---,0.00,VWS V14.01,2013-05-01 23:29:00,
2013-05-01 19:30:00,51.5,47.5,30.40,East,90,1.0,13.0,86,0.00,,---,0.00,VWS V14.01,2013-05-01 23:30:00,
2013-05-01 19:34:00,50.0,46.9,30.40,East,92,3.0,7.0,89,0.00,,---,0.00,VWS V14.01,2013-05-01 23:34:00,
2013-05-01 19:39:00,49.9,46.8,30.40,East,90,1.0,7.0,89,0.00,,---,0.00,VWS V14.01,2013-05-01 23:39:00,
2013-05-01 19:44:00,49.7,46.9,30.40,ENE,62,0.0,7.0,90,0.00,,---,0.00,VWS V14.01,2013-05-01 23:44:00,
2013-05-01 19:49:00,49.5,46.7,30.40,SE,124,2.0,7.0,90,0.00,,---,0.00,VWS V14.01,2013-05-01 23:49:00,
2013-05-01 19:54:00,49.4,46.6,30.40,ENE,77,0.0,7.0,90,0.00,,---,0.00,VWS V14.01,2013-05-01 23:54:00,
2013-05-01 19:59:00,49.3,46.8,30.40,East,88,1.0,7.0,91,0.00,,---,0.00,VWS V14.01,2013-05-01 23:59:00,
2013-05-01 20:00:00,51.0,47.6,30.40,East,96,5.0,9.0,88,0.00,,---,0.00,VWS V14.01,2013-05-02 00:00:00,
2013-05-01 20:04:00,49.2,46.7,30.40,ENE,67,2.0,5.0,91,0.00,,---,0.00,VWS V14.01,2013-05-02 00:04:00,
2013-05-01 20:08:00,49.2,46.7,30.40,ENE,77,1.0,5.0,91,0.00,,---,0.00,VWS V14.01,2013-05-02 00:08:00,
2013-05-01 20:13:00,49.1,46.6,30.40,ESE,113,0.0,5.0,91,0.00,,---,0.00,VWS V14.01,2013-05-02 00:13:00,
2013-05-01 20:18:00,49.0,46.8,30.40,ENE,66,1.0,5.0,92,0.00,,---,0.00,VWS V14.01,2013-05-02 00:18:00,
2013-05-01 20:23:00,48.9,46.7,30.40,NE,42,0.0,5.0,92,0.00,,---,0.00,VWS V14.01,2013-05-02 00:23:00,
2013-05-01 20:28:00,48.8,46.6,30.40,ENE,61,1.0,5.0,92,0.00,,---,0.00,VWS V14.01,2013-05-02 00:28:00,
2013-05-01 20:30:00,50.1,47.0,30.40,ENE,69,1.0,8.0,89,0.00,,---,0.00,VWS V14.01,2013-05-02 00:30:00,
2013-05-01 20:33:00,48.8,46.6,30.40,ENE,63,0.0,2.0,92,0.00,,---,0.00,VWS V14.01,2013-05-02 00:33:00,
2013-05-01 20:38:00,48.7,46.5,30.40,ENE,62,0.0,2.0,92,0.00,,---,0.00,VWS V14.01,2013-05-02 00:38:00,
2013-05-01 20:43:00,48.6,46.4,30.41,ENE,62,1.0,2.0,92,0.00,,---,0.00,VWS V14.01,2013-05-02 00:43:00,
2013-05-01 20:48:00,48.5,46.3,30.41,East,83,0.0,6.0,92,0.00,,---,0.00,VWS V14.01,2013-05-02 00:48:00,
2013-05-01 20:53:00,48.5,46.3,30.40,ENE,67,1.0,6.0,92,0.00,,---,0.00,VWS V14.01,2013-05-02 00:53:00,
2013-05-01 20:58:00,48.6,46.7,30.40,East,80,1.0,6.0,93,0.00,,---,0.00,VWS V14.01,2013-05-02 00:58:00,
2013-05-01 21:00:00,49.3,46.8,30.40,East,88,0.0,7.0,91,0.00,,---,0.00,VWS V14.01,2013-05-02 01:00:00,
2013-05-01 21:03:00,48.6,46.4,30.40,East,95,1.0,3.0,92,0.00,,---,0.00,VWS V14.01,2013-05-02 01:03:00,
2013-05-01 21:08:00,48.6,46.4,30.40,NNE,13,0.0,3.0,92,0.00,,---,0.00,VWS V14.01,2013-05-02 01:08:00,
2013-05-01 21:13:00,48.7,46.5,30.40,East,95,0.0,4.0,92,0.00,,---,0.00,VWS V14.01,2013-05-02 01:13:00,
2013-05-01 21:18:00,48.7,46.5,30.40,ESE,113,0.0,5.0,92,0.00,,---,0.00,VWS V14.01,2013-05-02 01:18:00,
2013-05-01 21:23:00,48.7,46.2,30.41,NE,54,2.0,5.0,91,0.00,,---,0.00,VWS V14.01,2013-05-02 01:23:00,
2013-05-01 21:28:00,48.7,46.2,30.41,East,92,5.0,5.0,91,0.00,,---,0.00,VWS V14.01,2013-05-02 01:28:00,
2013-05-01 21:30:00,48.8,46.6,30.40,ENE,61,1.0,5.0,92,0.00,,---,0.00,VWS V14.01,2013-05-02 01:30:00,
2013-05-01 21:33:00,48.7,46.2,30.41,East,96,0.0,5.0,91,0.00,,---,0.00,VWS V14.01,2013-05-02 01:33:00,
2013-05-01 21:38:00,48.6,46.1,30.41,East,80,1.0,5.0,91,0.00,,---,0.00,VWS V14.01,2013-05-02 01:38:00,
2013-05-01 21:43:00,48.6,46.1,30.41,ENE,64,0.0,5.0,91,0.00,,---,0.00,VWS V14.01,2013-05-02 01:43:00,
2013-05-01 21:48:00,48.6,46.1,30.41,NE,56,4.0,5.0,91,0.00,,---,0.00,VWS V14.01,2013-05-02 01:48:00,
2013-05-01 21:53:00,48.5,46.0,30.41,East,85,0.0,5.0,91,0.00,,---,0.00,VWS V14.01,2013-05-02 01:53:00,
2013-05-01 21:58:00,48.5,46.0,30.41,NNE,17,0.0,5.0,91,0.00,,---,0.00,VWS V14.01,2013-05-02 01:58:00,
2013-05-01 22:00:00,48.6,46.7,30.40,ENE,76,3.0,6.0,93,0.00,,---,0.00,VWS V14.01,2013-05-02 02:00:00,
2013-05-01 22:03:00,48.5,45.7,30.41,ESE,117,0.0,2.0,90,0.00,,---,0.00,VWS V14.01,2013-05-02 02:03:00,
2013-05-01 22:08:00,48.4,45.9,30.41,ENE,65,0.0,3.0,91,0.00,,---,0.00,VWS V14.01,2013-05-02 02:08:00,
2013-05-01 22:13:00,48.4,45.9,30.41,ENE,69,1.0,5.0,91,0.00,,---,0.00,VWS V14.01,2013-05-02 02:13:00,
2013-05-01 22:18:00,48.5,46.0,30.41,ESE,111,3.0,5.0,91,0.00,,---,0.00,VWS V14.01,2013-05-02 02:18:00,
2013-05-01 22:23:00,48.6,46.1,30.41,ENE,60,0.0,5.0,91,0.00,,---,0.00,VWS V14.01,2013-05-02 02:23:00,
2013-05-01 22:28:00,48.6,46.1,30.41,ESE,111,8.0,8.0,91,0.00,,---,0.00,VWS V14.01,2013-05-02 02:28:00,
2013-05-01 22:30:00,48.7,46.2,30.41,North,360,1.0,5.0,91,0.00,,---,0.00,VWS V14.01,2013-05-02 02:30:00,
2013-05-01 22:33:00,48.8,46.6,30.41,ESE,107,2.0,7.0,92,0.00,,---,0.00,VWS V14.01,2013-05-02 02:33:00,
2013-05-01 22:38:00,48.9,46.7,30.41,ENE,70,4.0,10.0,92,0.00,,---,0.00,VWS V14.01,2013-05-02 02:38:00,
2013-05-01 22:43:00,48.8,46.6,30.40,NE,40,2.0,10.0,92,0.00,,---,0.00,VWS V14.01,2013-05-02 02:43:00,
2013-05-01 22:48:00,48.7,46.5,30.40,NE,48,4.0,10.0,92,0.00,,---,0.00,VWS V14.01,2013-05-02 02:48:00,
2013-05-01 22:53:00,48.5,46.3,30.40,NNE,30,3.0,10.0,92,0.00,,---,0.00,VWS V14.01,2013-05-02 02:53:00,
2013-05-01 22:58:00,48.5,46.3,30.40,East,82,5.0,10.0,92,0.00,,---,0.00,VWS V14.01,2013-05-02 02:58:00,
2013-05-01 23:00:00,48.5,45.7,30.41,ENE,70,0.0,6.0,90,0.00,,---,0.00,VWS V14.01,2013-05-02 03:00:00,
2013-05-01 23:03:00,48.4,46.5,30.40,East,84,8.0,8.0,93,0.00,,---,0.00,VWS V14.01,2013-05-02 03:03:00,
2013-05-01 23:08:00,48.3,46.4,30.40,ENE,63,2.0,8.0,93,0.00,,---,0.00,VWS V14.01,2013-05-02 03:08:00,
2013-05-01 23:13:00,48.3,46.4,30.40,ESE,123,0.0,8.0,93,0.00,,---,0.00,VWS V14.01,2013-05-02 03:13:00,
2013-05-01 23:18:00,48.3,46.4,30.40,ENE,71,3.0,8.0,93,0.00,,---,0.00,VWS V14.01,2013-05-02 03:18:00,
2013-05-01 23:23:00,48.3,46.4,30.40,North,11,1.0,8.0,93,0.00,,---,0.00,VWS V14.01,2013-05-02 03:23:00,
2013-05-01 23:28:00,48.3,46.4,30.40,East,99,1.0,8.0,93,0.00,,---,0.00,VWS V14.01,2013-05-02 03:28:00,
2013-05-01 23:30:00,48.6,46.4,30.41,ENE,74,1.0,8.0,92,0.00,,---,0.00,VWS V14.01,2013-05-02 03:30:00,
2013-05-01 23:33:00,48.4,46.5,30.40,ESE,107,3.0,9.0,93,0.00,,---,0.00,VWS V14.01,2013-05-02 03:33:00,
2013-05-01 23:38:00,48.5,46.6,30.40,East,100,0.0,9.0,93,0.00,,---,0.00,VWS V14.01,2013-05-02 03:38:00,
2013-05-01 23:43:00,48.6,47.0,30.40,ENE,78,2.0,9.0,94,0.00,,---,0.00,VWS V14.01,2013-05-02 03:43:00,
2013-05-01 23:48:00,48.7,46.8,30.40,ENE,74,0.0,9.0,93,0.00,,---,0.00,VWS V14.01,2013-05-02 03:48:00,
2013-05-01 23:53:00,48.8,46.9,30.39,ENE,66,2.0,9.0,93,0.00,,---,0.00,VWS V14.01,2013-05-02 03:53:00,
2013-05-01 23:58:00,48.8,46.9,30.39,ENE,78,2.0,9.0,93,0.00,,---,0.00,VWS V14.01,2013-05-02 03:58:00,